Weather History for Iron Mountain, MI

Change the Weather History Date:

Friday, September 19, 2014

  Actual Average Record
Temperature  
Mean Temperature 55 °F -  
Max Temperature 69 °F 68 °F 86 °F (1998)
Min Temperature 42 °F 45 °F 28 °F (2012)
Degree Days  
Heating Degree Days 10    
Growing Degree Days 5 (Base 50)    
Moisture  
Dew Point 47 °F    
Average Humidity 81    
Maximum Humidity 93    
Minimum Humidity 55    
Precipitation  
Precipitation 0.00 in - - ()
Sea Level Pressure  
Sea Level Pressure 30.00 in    
Wind  
Wind Speed 8 mph (South)    
Max Wind Speed 21 mph    
Max Gust Speed 30 mph    
Visibility 8 miles    
Events      
Averages and records for this station are not official NWS values.
T = Trace of Precipitation, MM = Missing Value Source: NWS Daily Summary

Daily Weather History Graph

Daily Weather History Graph

Search for Another Location

Airport:

Trip Planner

Search our weather history database for the weather conditions in past years. The results will help you decide how hot, cold, wet, or windy it might be!

Date:

Astronomy

Sep. 19, 2014 Rise Set
Actual Time 6:35 AM CDT 6:55 PM CDT
Civil Twilight 6:05 AM CDT 7:25 PM CDT
Nautical Twilight 5:30 AM CDT 8:00 PM CDT
Astronomical Twilight 4:54 AM CDT 8:36 PM CDT
Moon 2:10 AM CDT (9/19) 4:33 PM CDT (9/19)
Length of Visible Light 13h 19m
Length of Day
12h 20m
Waning Crescent, 18% of the Moon is Illuminated
Sep 19
Waning Crescent
Sep 24
New
Oct 1
First Quarter
Oct 8
Full
Oct 15
Last Quarter

Hourly Weather History & Observations

Time (CDT) Temp. Windchill Dew Point Humidity Pressure Visibility Wind Dir Wind Speed Gust Speed Precip Events Conditions
12:54 AM 42.1 °F 39.2 °F 39.9 °F 92% 30.15 in 7.0 mi SE 4.6 mph - N/A   Clear
1:24 AM 43.0 °F 39.5 °F 41.0 °F 93% 30.12 in 7.0 mi SE 5.8 mph - N/A   Scattered Clouds
1:34 AM 44.1 °F 41.5 °F 42.1 °F 93% 30.12 in 8.0 mi SE 4.6 mph - N/A   Mostly Cloudy
1:54 AM 45.0 °F 41.8 °F 43.0 °F 93% 30.14 in 7.0 mi SE 5.8 mph - N/A   Overcast
2:27 AM 46.9 °F - 44.1 °F 90% 30.12 in 8.0 mi SE 4.6 mph - N/A   Overcast
2:54 AM 46.9 °F - 45.0 °F 93% 30.14 in 8.0 mi SE 4.6 mph - N/A   Overcast
3:11 AM 48.0 °F - 46.0 °F 93% 30.11 in 8.0 mi SSE 5.8 mph - N/A   Overcast
3:26 AM 48.0 °F - 46.0 °F 93% 30.11 in 8.0 mi South 4.6 mph - N/A   Overcast
3:54 AM 48.0 °F - 46.0 °F 93% 30.12 in 10.0 mi SSE 5.8 mph - N/A   Overcast
4:54 AM 48.9 °F - 46.0 °F 90% 30.12 in 10.0 mi South 6.9 mph - N/A   Overcast
5:14 AM 48.0 °F - 45.0 °F 89% 30.10 in 10.0 mi South 5.8 mph - N/A   Scattered Clouds
5:49 AM 46.4 °F 42.9 °F 44.6 °F 93% 30.09 in 8.0 mi South 6.9 mph - N/A   Mostly Cloudy
5:54 AM 46.9 °F - 45.0 °F 93% 30.11 in 8.0 mi South 6.9 mph - N/A   Mostly Cloudy
6:16 AM 46.9 °F - 45.0 °F 93% 30.09 in 7.0 mi South 5.8 mph - N/A   Scattered Clouds
6:36 AM 48.0 °F - 45.0 °F 89% 30.10 in 5.0 mi South 8.1 mph - N/A   Mostly Cloudy
6:44 AM 48.0 °F - 46.0 °F 93% 30.09 in 4.0 mi South 9.2 mph - N/A   Overcast
6:54 AM 48.0 °F - 46.0 °F 93% 30.11 in 2.5 mi South 9.2 mph - N/A   Overcast
7:12 AM 48.0 °F - 46.0 °F 93% 30.09 in 1.8 mi South 10.4 mph - N/A   Overcast
7:49 AM 48.2 °F - 46.4 °F 93% 30.08 in 2.0 mi South 9.2 mph - N/A   Overcast
8:02 AM 48.9 °F - 46.9 °F 93% 30.08 in 4.0 mi South 9.2 mph - N/A   Overcast
8:54 AM 50.0 °F - 48.0 °F 93% 30.07 in 6.0 mi South 12.7 mph - N/A   Overcast
9:04 AM 51.1 °F - 48.0 °F 89% 30.05 in 7.0 mi South 11.5 mph - N/A   Overcast
9:54 AM 53.1 °F - 48.0 °F 83% 30.04 in 10.0 mi SSE 15.0 mph 24.2 mph N/A   Overcast
10:36 AM 55.0 °F - 48.0 °F 77% 30.02 in 10.0 mi South 15.0 mph 21.9 mph N/A   Scattered Clouds
10:54 AM 57.0 °F - 48.9 °F 74% 30.02 in 10.0 mi South 16.1 mph 20.7 mph N/A   Partly Cloudy
11:54 AM 60.1 °F - 50.0 °F 69% 30.01 in 10.0 mi South 13.8 mph - N/A   Scattered Clouds
12:54 PM 61.0 °F - 51.1 °F 70% 29.96 in 10.0 mi South 17.3 mph 24.2 mph N/A   Clear
1:54 PM 64.9 °F - 51.1 °F 61% 29.90 in 10.0 mi South 19.6 mph 25.3 mph N/A   Clear
2:54 PM 66.0 °F - 50.0 °F 56% 29.82 in 10.0 mi South 20.7 mph 29.9 mph N/A   Clear
3:54 PM 68.0 °F - 51.1 °F 55% 29.83 in 10.0 mi South 18.4 mph 27.6 mph N/A   Clear
4:54 PM 66.9 °F - 51.1 °F 57% 29.78 in 10.0 mi South 12.7 mph 26.5 mph N/A   Clear
5:54 PM 66.9 °F - 51.1 °F 57% 29.76 in 10.0 mi South 18.4 mph 27.6 mph N/A   Scattered Clouds
6:54 PM 66.0 °F - 51.1 °F 59% 29.78 in 10.0 mi SSW 8.1 mph 19.6 mph N/A   Mostly Cloudy
7:54 PM 66.0 °F - 52.0 °F 60% 29.76 in 10.0 mi South 11.5 mph 23.0 mph N/A   Mostly Cloudy
9:54 PM 64.9 °F - 52.0 °F 63% 29.74 in 10.0 mi SSW 9.2 mph - 0.00 in   Overcast
10:54 PM 64.9 °F - 52.0 °F 63% 29.73 in 10.0 mi South 10.4 mph - N/A   Overcast
11:54 PM 64.9 °F - 52.0 °F 63% 29.72 in 10.0 mi SSW 8.1 mph - N/A   Overcast